FW7418 Weather Reports


Display with metric or nautical units.
time (UTC)temp
F
wind
direction
speed
MPH
gust
MPH
rain 1hr
in
rain 24hr
in
rain mn
in
humidity
%
barometer
mb
20260903001810 84 296 0.0 0.0 0.00 0.00 0.00 82 1019.9
20260903001305 85 296 0.0 0.0 0.00 0.00 0.00 81 1019.7
20260903000800 86 295 0.0 0.0 0.00 0.00 0.00 80 1019.7
20260903000255 87 294 0.0 0.0 0.00 0.00 0.00 76 1019.9
20260902235753 87 294 1.0 1.0 0.00 0.00 0.00 74 1019.8
20260902235248 87 294 1.0 1.0 0.00 0.00 0.00 77 1019.6
20260902234748 87 294 0.0 0.0 0.00 0.00 0.00 78 1019.4
20260902234242 88 293 1.0 2.0 0.00 0.00 0.00 74 1019.8
20260902233742 88 294 1.0 1.0 0.00 0.00 0.00 74 1019.9
20260902233236 89 293 1.0 1.0 0.00 0.00 0.00 74 1019.8
20260902232734 89 284 2.0 2.0 0.00 0.00 0.00 70 1019.7
20260902232229 89 298 1.0 1.0 0.00 0.00 0.00 71 1019.6
20260902231728 90 298 1.0 1.0 0.00 0.00 0.00 70 1019.8
20260902231224 90 292 1.0 1.0 0.00 0.00 0.00 70 1019.9
20260902230719 90 292 1.0 1.0 0.00 0.00 0.00 70 1019.8
20260902230217 91 290 2.0 2.0 0.00 0.00 0.00 69 1020.0
20260902225713 91 272 1.0 1.0 0.00 0.00 0.00 68 1019.6
20260902225213 91 294 1.0 2.0 0.00 0.00 0.00 68 1020.0
20260902224711 91 288 1.0 1.0 0.00 0.00 0.00 67 1019.7
20260902224207 91 300 2.0 2.0 0.00 0.00 0.00 67 1020.0
20260902223703 91 289 2.0 2.0 0.00 0.00 0.00 67 1019.8
20260902223202 91 293 0.0 0.0 0.00 0.00 0.00 66 1019.9
20260902222701 91 282 1.0 1.0 0.00 0.00 0.00 66 1019.9
20260902222201 92 281 1.0 1.0 0.00 0.00 0.00 67 1019.9
20260902221654 92 274 1.0 2.0 0.00 0.00 0.00 66 1019.9
20260902221149 92 273 3.0 3.0 0.00 0.00 0.00 64 1020.1
20260902220644 92 286 3.0 3.0 0.00 0.00 0.00 65 1020.0
20260902220139 92 287 1.0 1.0 0.00 0.00 0.00 66 1019.8
20260902215635 92 297 2.0 2.0 0.00 0.00 0.00 66 1020.1
20260902215131 92 276 2.0 2.0 0.00 0.00 0.00 65 1019.7
20260902214625 92 290 2.0 2.0 0.00 0.00 0.00 66 1020.0
20260902214124 92 281 1.0 1.0 0.00 0.00 0.00 65 1020.0
20260902213620 92 268 4.0 6.0 0.00 0.00 0.00 64 1020.2
20260902213119 92 288 4.0 6.0 0.00 0.00 0.00 64 1020.2
20260902212615 92 276 3.0 3.0 0.00 0.00 0.00 64 1020.1
20260902212110 93 289 1.0 1.0 0.00 0.00 0.00 64 1020.2
20260902211607 93 273 2.0 2.0 0.00 0.00 0.00 65 1020.2
20260902211102 93 295 3.0 3.0 0.00 0.00 0.00 65 1020.1
20260902210556 93 289 1.0 1.0 0.00 0.00 0.00 64 1019.9
20260902210055 92 265 2.0 2.0 0.00 0.00 0.00 64 1020.2
20260902205555 92 279 2.0 2.0 0.00 0.00 0.00 64 1020.2
20260902205051 93 266 1.0 2.0 0.00 0.00 0.00 64 1020.5
20260902204545 92 281 1.0 2.0 0.00 0.00 0.00 66 1020.2
20260902204039 92 267 3.0 5.0 0.00 0.00 0.00 64 1020.5
20260902203535 92 285 4.0 5.0 0.00 0.00 0.00 63 1020.3
20260902203034 92 305 2.0 2.0 0.00 0.00 0.00 66 1020.6
20260902202530 93 262 2.0 3.0 0.00 0.00 0.00 64 1020.5
20260902202026 93 284 3.0 3.0 0.00 0.00 0.00 64 1020.5
20260902201522 93 291 1.0 2.0 0.00 0.00 0.00 64 1020.5
20260902201021 92 286 2.0 3.0 0.00 0.00 0.00 65 1020.5
20260902200516 93 286 1.0 1.0 0.00 0.00 0.00 63 1020.5
20260902200013 92 282 2.0 2.0 0.00 0.00 0.00 64 1020.6
20260902195508 92 265 2.0 2.0 0.00 0.00 0.00 65 1020.7
20260902195007 93 272 1.0 1.0 0.00 0.00 0.00 65 1020.6
20260902194501 92 252 1.0 2.0 0.00 0.00 0.00 63 1020.9
20260902193956 92 288 4.0 5.0 0.00 0.00 0.00 64 1020.8
20260902193452 92 212 3.0 5.0 0.00 0.00 0.00 63 1020.8
20260902192950 92 277 4.0 5.0 0.00 0.00 0.00 63 1020.7
20260902192450 92 230 2.0 2.0 0.00 0.00 0.00 63 1020.9
20260902191949 93 291 3.0 3.0 0.00 0.00 0.00 63 1021.1
20260902191444 93 289 1.0 2.0 0.00 0.00 0.00 63 1021.0
20260902190939 93 292 3.0 3.0 0.00 0.00 0.00 62 1021.2
20260902190435 93 273 2.0 3.0 0.00 0.00 0.00 63 1021.4
20260902185930 93 290 4.0 6.0 0.00 0.00 0.00 61 1021.3
20260902185426 93 275 3.0 3.0 0.00 0.00 0.00 62 1021.5
20260902184921 92 307 0.0 0.0 0.00 0.00 0.00 64 1021.3
20260902184416 93 300 2.0 2.0 0.00 0.00 0.00 63 1021.4
20260902183912 93 279 1.0 1.0 0.00 0.00 0.00 63 1021.4
20260902183408 93 288 2.0 2.0 0.00 0.00 0.00 63 1021.6
20260902182904 93 290 2.0 3.0 0.00 0.00 0.00 62 1021.6
20260902182400 92 282 0.0 1.0 0.00 0.00 0.00 64 1021.4
20260902181856 92 275 3.0 3.0 0.00 0.00 0.00 64 1021.5
20260902181352 92 290 3.0 3.0 0.00 0.00 0.00 63 1021.3
20260902180851 92 270 2.0 2.0 0.00 0.00 0.00 66 1021.5
20260902180346 92 267 3.0 3.0 0.00 0.00 0.00 65 1021.6
20260902175842 92 218 2.0 2.0 0.00 0.00 0.00 64 1021.7
20260902175337 91 280 2.0 2.0 0.00 0.00 0.00 66 1021.5
20260902174832 91 273 2.0 2.0 0.00 0.00 0.00 68 1021.8
20260902174329 91 291 1.0 1.0 0.00 0.00 0.00 66 1021.8
20260902173819 91 266 3.0 5.0 0.00 0.00 0.00 66 1022.0
20260902173319 92 267 3.0 3.0 0.00 0.00 0.00 64 1022.0
20260902172813 91 263 1.0 1.0 0.00 0.00 0.00 66 1022.1
20260902172308 91 274 1.0 2.0 0.00 0.00 0.00 65 1022.1
20260902171803 91 284 1.0 1.0 0.00 0.00 0.00 68 1022.1
20260902171257 91 266 1.0 2.0 0.00 0.00 0.00 67 1022.4
20260902170754 91 272 2.0 2.0 0.00 0.00 0.00 68 1022.1
20260902170249 91 281 4.0 6.0 0.00 0.00 0.00 67 1022.2
20260902165744 91 269 3.0 3.0 0.00 0.00 0.00 67 1022.1
20260902165244 91 274 1.0 1.0 0.00 0.00 0.00 69 1022.2
20260902164738 91 257 2.0 2.0 0.00 0.00 0.00 68 1022.2
20260902164233 91 214 2.0 3.0 0.00 0.00 0.00 69 1022.3
20260902163728 90 291 1.0 1.0 0.00 0.00 0.00 70 1022.3
20260902163227 90 287 2.0 2.0 0.00 0.00 0.00 71 1022.2
20260902162726 90 275 2.0 2.0 0.00 0.00 0.00 71 1022.0
20260902162221 90 283 0.0 1.0 0.00 0.00 0.00 71 1022.3
20260902161716 90 264 1.0 1.0 0.00 0.00 0.00 70 1022.1
20260902161211 90 271 1.0 1.0 0.00 0.00 0.00 73 1022.3
20260902160709 89 272 0.0 1.0 0.00 0.00 0.00 74 1022.4
20260902160202 89 272 0.0 0.0 0.00 0.00 0.00 73 1022.4
20260902155701 89 277 3.0 3.0 0.00 0.00 0.00 72 1022.2
20260902155159 89 270 1.0 2.0 0.00 0.00 0.00 72 1022.4
20260902154654 89 271 1.0 2.0 0.00 0.00 0.00 72 1022.3
20260902154148 89 270 0.0 0.0 0.00 0.00 0.00 73 1022.3
20260902153643 88 264 1.0 1.0 0.00 0.00 0.00 73 1022.1
20260902153138 88 270 2.0 2.0 0.00 0.00 0.00 72 1022.3
20260902152634 88 250 3.0 5.0 0.00 0.00 0.00 73 1022.6
20260902152129 88 270 1.0 2.0 0.00 0.00 0.00 75 1022.4
20260902151625 88 266 0.0 0.0 0.00 0.00 0.00 75 1022.6
20260902151119 88 276 1.0 2.0 0.00 0.00 0.00 74 1022.5
20260902150614 87 284 0.0 0.0 0.00 0.00 0.00 76 1022.7
20260902150109 87 296 2.0 3.0 0.00 0.00 0.00 75 1022.6
20260902145604 86 296 1.0 2.0 0.00 0.00 0.00 76 1022.9
20260902145103 86 267 2.0 2.0 0.00 0.00 0.00 77 1022.6
20260902144600 86 324 1.0 1.0 0.00 0.00 0.00 78 1022.6
20260902144055 86 292 1.0 1.0 0.00 0.00 0.00 77 1022.5
20260902143550 86 310 2.0 2.0 0.00 0.00 0.00 79 1022.7
20260902143046 86 313 1.0 1.0 0.00 0.00 0.00 81 1022.6
20260902142543 85 309 0.0 0.0 0.00 0.00 0.00 80 1022.7
20260902142036 85 311 0.0 0.0 0.00 0.00 0.00 80 1022.7
20260902141536 85 306 1.0 1.0 0.00 0.00 0.00 80 1022.7
20260902141031 84 306 0.0 0.0 0.00 0.00 0.00 80 1022.4
20260902140526 84 307 0.0 0.0 0.00 0.00 0.00 81 1022.4
20260902140022 83 307 1.0 1.0 0.00 0.00 0.00 83 1022.5
20260902135520 83 307 0.0 0.0 0.00 0.00 0.00 83 1022.4
20260902135015 82 307 0.0 0.0 0.00 0.00 0.00 84 1022.3
20260902134511 82 307 0.0 0.0 0.00 0.00 0.00 85 1022.5
20260902134006 82 306 0.0 0.0 0.00 0.00 0.00 85 1022.6
20260902133501 81 306 0.0 0.0 0.00 0.00 0.00 85 1022.3
20260902132955 81 306 0.0 0.0 0.00 0.00 0.00 86 1022.6
20260902132451 80 305 0.0 0.0 0.00 0.00 0.00 87 1022.6
20260902131945 80 297 1.0 2.0 0.00 0.00 0.00 86 1022.7
20260902131442 80 310 0.0 0.0 0.00 0.00 0.00 88 1022.7
20260902130941 79 303 1.0 1.0 0.00 0.00 0.00 87 1022.6
20260902130437 79 307 1.0 2.0 0.00 0.00 0.00 87 1022.7
20260902125932 79 307 1.0 2.0 0.00 0.00 0.00 87 1022.5
20260902125428 79 304 1.0 1.0 0.00 0.00 0.00 88 1022.6
20260902124924 79 312 1.0 1.0 0.00 0.00 0.00 88 1022.7
20260902124420 78 307 2.0 2.0 0.00 0.00 0.00 88 1022.3
20260902123914 78 307 1.0 1.0 0.00 0.00 0.00 89 1022.5
20260902123411 78 310 0.0 0.0 0.00 0.00 0.00 90 1022.5
20260902122909 78 308 0.0 0.0 0.00 0.00 0.00 90 1022.4
20260902122405 78 308 0.0 0.0 0.00 0.00 0.00 90 1022.4
20260902121900 77 321 0.0 0.0 0.00 0.00 0.00 91 1022.3
20260902121355 77 321 0.0 0.0 0.00 0.00 0.00 91 1022.3
20260902120850 76 317 0.0 0.0 0.00 0.00 0.00 92 1022.4
20260902120346 76 322 0.0 1.0 0.00 0.00 0.00 94 1022.2
20260902115840 76 317 0.0 1.0 0.00 0.00 0.00 94 1022.1
20260902115337 75 325 0.0 0.0 0.00 0.00 0.00 94 1022.1
20260902114833 75 322 0.0 0.0 0.00 0.00 0.00 94 1022.3
20260902114329 75 326 0.0 0.0 0.00 0.00 0.00 94 1021.9
20260902113828 75 317 0.0 0.0 0.00 0.00 0.00 95 1022.0
20260902113325 75 326 0.0 0.0 0.00 0.00 0.00 95 1021.8
20260902112823 75 326 0.0 0.0 0.00 0.00 0.00 95 1021.9
20260902112320 75 326 0.0 0.0 0.00 0.00 0.00 95 1021.7
20260902111815 75 326 0.0 0.0 0.00 0.00 0.00 94 1021.9
20260902111312 75 321 0.0 0.0 0.00 0.00 0.00 94 1021.8
20260902110807 75 326 0.0 0.0 0.00 0.00 0.00 95 1021.7
20260902110303 75 326 0.0 0.0 0.00 0.00 0.00 95 1021.8
20260902105803 75 326 0.0 0.0 0.00 0.00 0.00 95 1021.7
20260902105257 75 326 0.0 0.0 0.00 0.00 0.00 96 1021.6
20260902104753 75 326 0.0 0.0 0.00 0.00 0.00 96 1021.7
20260902104249 75 326 0.0 0.0 0.00 0.00 0.00 96 1021.6
20260902103748 75 326 0.0 0.0 0.00 0.00 0.00 96 1021.7
20260902103242 75 326 0.0 0.0 0.00 0.00 0.00 96 1021.7
20260902102733 75 326 0.0 0.0 0.00 0.00 0.00 96 1021.7
20260902102230 75 326 0.0 0.0 0.00 0.00 0.00 96 1021.8
20260902101720 75 326 0.0 0.0 0.00 0.00 0.00 96 1021.9
20260902101214 75 326 0.0 0.0 0.00 0.00 0.00 96 1021.7
20260902100713 75 320 0.0 0.0 0.00 0.00 0.00 96 1021.7
20260902100209 75 320 0.0 0.0 0.00 0.00 0.00 96 1021.7
20260902095708 75 320 0.0 0.0 0.00 0.00 0.00 96 1021.7
20260902095202 75 320 0.0 0.0 0.00 0.00 0.00 96 1021.7
20260902094657 75 320 0.0 0.0 0.00 0.00 0.00 96 1021.7
20260902094154 75 320 0.0 0.0 0.00 0.00 0.00 96 1021.6
20260902093652 75 320 0.0 0.0 0.00 0.00 0.00 96 1021.5
20260902093148 75 320 0.0 0.0 0.00 0.00 0.00 96 1021.6
20260902092643 75 320 0.0 0.0 0.00 0.00 0.00 96 1021.5
20260902092137 75 320 0.0 0.0 0.00 0.00 0.00 96 1021.4
20260902091632 75 320 0.0 0.0 0.00 0.00 0.00 96 1021.5
20260902091129 75 320 0.0 0.0 0.00 0.00 0.00 96 1021.6
20260902090624 75 320 0.0 0.0 0.00 0.00 0.00 96 1021.6
20260902090123 75 320 0.0 0.0 0.00 0.00 0.00 95 1021.5
20260902085618 75 320 0.0 0.0 0.00 0.00 0.00 95 1021.5
20260902085113 75 320 0.0 0.0 0.00 0.00 0.00 95 1021.3
20260902084609 75 320 0.0 0.0 0.00 0.00 0.00 95 1021.2
20260902084105 76 320 0.0 0.0 0.00 0.00 0.00 95 1021.2
20260902083600 76 320 0.0 0.0 0.00 0.00 0.00 95 1021.2
20260902083059 76 320 0.0 0.0 0.00 0.00 0.00 95 1021.2
20260902082555 76 320 0.0 0.0 0.00 0.00 0.00 95 1021.2
20260902082051 76 320 0.0 0.0 0.00 0.00 0.00 95 1021.2
20260902081548 76 320 0.0 0.0 0.00 0.00 0.00 95 1021.0
20260902081048 76 320 0.0 0.0 0.00 0.00 0.00 95 1021.0
20260902080543 76 320 0.0 0.0 0.00 0.00 0.00 95 1021.0
20260902080039 76 320 0.0 0.0 0.00 0.00 0.00 95 1021.1
20260902075539 76 320 0.0 0.0 0.00 0.00 0.00 95 1021.2
20260902075035 76 320 0.0 0.0 0.00 0.00 0.00 94 1021.0
20260902074530 76 320 0.0 0.0 0.00 0.00 0.00 94 1021.1
20260902074025 76 320 0.0 0.0 0.00 0.00 0.00 94 1021.0
20260902073521 76 320 0.0 0.0 0.00 0.00 0.00 94 1021.2
20260902073017 76 320 0.0 0.0 0.00 0.00 0.00 94 1021.1
20260902072512 76 320 0.0 0.0 0.00 0.00 0.00 94 1021.1
20260902072009 76 320 0.0 0.0 0.00 0.00 0.00 94 1021.1
20260902071508 76 320 0.0 0.0 0.00 0.00 0.00 94 1020.9
20260902071005 76 320 0.0 0.0 0.00 0.00 0.00 94 1021.0
20260902070500 77 320 0.0 0.0 0.00 0.00 0.00 94 1021.0
20260902065959 77 320 0.0 0.0 0.00 0.00 0.00 93 1021.0
20260902065454 77 320 0.0 0.0 0.00 0.00 0.00 93 1021.1
20260902064949 77 320 0.0 0.0 0.00 0.00 0.00 93 1021.1
20260902064445 77 320 0.0 0.0 0.00 0.00 0.00 93 1021.1
20260902063940 77 320 0.0 0.0 0.00 0.00 0.00 93 1021.1
20260902063440 77 320 0.0 0.0 0.00 0.00 0.00 93 1021.0
20260902062936 77 320 0.0 0.0 0.00 0.00 0.00 93 1021.2
20260902062434 77 320 0.0 0.0 0.00 0.00 0.00 93 1021.1
20260902061929 77 320 0.0 0.0 0.00 0.00 0.00 93 1021.3
20260902061424 77 320 0.0 0.0 0.00 0.00 0.00 92 1021.1
20260902060920 77 320 0.0 0.0 0.00 0.00 0.00 92 1021.1
20260902060416 77 320 0.0 0.0 0.00 0.00 0.00 92 1021.3
20260902055912 77 320 0.0 0.0 0.00 0.00 0.00 92 1021.0
20260902055408 77 320 0.0 0.0 0.00 0.00 0.00 91 1021.0
20260902054903 77 319 0.0 0.0 0.00 0.00 0.00 92 1021.3
20260902054358 77 319 0.0 0.0 0.00 0.00 0.00 92 1021.1
20260902053854 78 319 0.0 0.0 0.00 0.00 0.00 91 1020.9
20260902053349 78 319 0.0 0.0 0.00 0.00 0.00 91 1021.2
20260902052847 78 319 0.0 0.0 0.00 0.00 0.00 91 1021.2
20260902052343 78 319 0.0 0.0 0.00 0.00 0.00 90 1021.0
20260902051838 78 319 0.0 0.0 0.00 0.00 0.00 90 1021.1
20260902051337 78 319 0.0 0.0 0.00 0.00 0.00 90 1021.1
20260902050832 78 319 0.0 0.0 0.00 0.00 0.00 89 1021.0
20260902050331 78 319 0.0 0.0 0.00 0.00 0.00 89 1021.2
20260902045826 78 319 0.0 0.0 0.00 0.00 0.00 89 1020.9
20260902045322 78 319 0.0 0.0 0.00 0.00 0.00 89 1021.1
20260902044819 78 318 0.0 0.0 0.00 0.00 0.00 89 1021.1
20260902044314 78 318 0.0 0.0 0.00 0.00 0.00 89 1021.1
20260902043814 78 318 0.0 0.0 0.00 0.00 0.00 89 1021.2
20260902043309 78 318 0.0 0.0 0.00 0.00 0.00 89 1020.9
20260902042808 79 318 0.0 0.0 0.00 0.00 0.00 88 1021.1
20260902042308 79 318 0.0 0.0 0.00 0.00 0.00 89 1021.1
20260902041759 79 318 0.0 0.0 0.00 0.00 0.00 88 1021.3
20260902041258 79 318 0.0 0.0 0.00 0.00 0.00 88 1021.2
20260902040757 79 318 0.0 0.0 0.00 0.00 0.00 88 1021.3
20260902040253 79 318 0.0 0.0 0.00 0.00 0.00 88 1021.2
20260902035752 79 318 0.0 0.0 0.00 0.00 0.00 88 1021.3
20260902035248 79 318 0.0 0.0 0.00 0.00 0.00 88 1021.0
20260902034746 79 318 0.0 0.0 0.00 0.00 0.00 88 1021.4
20260902034242 79 318 0.0 0.0 0.00 0.00 0.00 88 1021.1
20260902033739 79 318 0.0 0.0 0.00 0.00 0.00 88 1021.3
20260902033235 80 318 0.0 0.0 0.00 0.00 0.00 88 1021.2
20260902032733 80 318 0.0 0.0 0.00 0.00 0.00 88 1021.3
20260902032229 80 318 0.0 0.0 0.00 0.00 0.00 88 1021.1
20260902031723 80 318 0.0 0.0 0.00 0.00 0.00 88 1021.4
20260902031218 80 318 0.0 0.0 0.00 0.00 0.00 87 1021.1
20260902030714 80 318 0.0 0.0 0.00 0.00 0.00 86 1021.1
20260902030214 80 318 0.0 0.0 0.00 0.00 0.00 86 1021.5
20260902025713 80 318 0.0 0.0 0.00 0.00 0.00 86 1021.2
20260902025208 80 318 0.0 0.0 0.00 0.00 0.00 87 1021.0
20260902024703 80 318 0.0 0.0 0.00 0.00 0.00 87 1021.5
20260902024158 80 318 0.0 0.0 0.00 0.00 0.00 87 1021.0
20260902023654 80 318 0.0 0.0 0.00 0.00 0.00 86 1021.1
20260902023149 80 318 0.0 0.0 0.00 0.00 0.00 86 1021.0
20260902022648 80 318 0.0 0.0 0.00 0.00 0.00 86 1021.0
20260902022144 80 318 0.0 0.0 0.00 0.00 0.00 86 1021.0
20260902021640 80 318 0.0 0.0 0.00 0.00 0.00 86 1020.9
20260902021134 80 318 0.0 0.0 0.00 0.00 0.00 86 1021.0
20260902020631 81 318 0.0 0.0 0.00 0.00 0.00 86 1021.1
20260902020126 80 318 0.0 0.0 0.00 0.00 0.00 87 1021.0
20260902015622 81 318 0.0 0.0 0.00 0.00 0.00 87 1021.1
20260902015118 81 318 0.0 0.0 0.00 0.00 0.00 87 1020.8
20260902014613 81 318 0.0 0.0 0.00 0.00 0.00 87 1020.8
20260902014109 81 318 0.0 0.0 0.00 0.00 0.00 87 1020.8
20260902013608 81 318 0.0 0.0 0.00 0.00 0.00 86 1020.8
20260902013104 82 318 0.0 0.0 0.00 0.00 0.00 86 1020.6
20260902012559 81 318 0.0 0.0 0.00 0.00 0.00 86 1020.8
20260902012054 81 318 0.0 0.0 0.00 0.00 0.00 86 1020.8
20260902011550 81 318 0.0 0.0 0.00 0.00 0.00 86 1020.7
20260902011049 82 318 0.0 0.0 0.00 0.00 0.00 86 1020.7
20260902010549 82 318 0.0 0.0 0.00 0.00 0.00 85 1020.6
20260902010045 82 318 0.0 0.0 0.00 0.00 0.00 84 1020.4
20260902005542 82 318 0.0 0.0 0.00 0.00 0.00 84 1020.6
20260902005039 83 318 0.0 0.0 0.00 0.00 0.00 83 1020.4
20260902004538 83 318 0.0 0.0 0.00 0.00 0.00 82 1020.5
20260902004033 84 318 0.0 0.0 0.00 0.00 0.00 81 1020.4
20260902003528 84 318 0.0 0.0 0.00 0.00 0.00 80 1020.6
20260902003024 84 318 0.0 0.0 0.00 0.00 0.00 81 1020.6
20260902002520 84 317 0.0 0.0 0.00 0.00 0.00 80 1020.3
20260902002015 84 317 0.0 0.0 0.00 0.00 0.00 80 1020.4